General Aviation Weather

Text Reports

Enter one or more of the following location identifiers separated by a space:

Zip Code, Four-Character ICAO or Three-Character IATA airport codes.

METAR - Aviation Routine Weather Report
KICR - Winner, South Dakota
Updated at 7:53 AM GMT on August 31, 2015 (2:53 AM CDT):
METAR KICR 310753Z AUTO 19024G31KT 10SM CLR 23/13 A2976 RMK AO2 PK WND 19032/0743 SLP055 T02330128 $
TAF - Terminal Area Forecast
KICR - Winner, South Dakota
Updated at 7:53 AM GMT on August 31, 2015 (2:53 AM CDT):
No TAF is currently available for this location.
Decoded:
No decoded TAF is available.
PIREP - Pilot Weather Report
KICR - Winner, South Dakota
Updated at 7:53 AM GMT on August 31, 2015 (2:53 AM CDT):
No PIREP is currently available for this location.
AIRMET - Airmens Meteorological Information
KICR - Winner, South Dakota
Updated at 7:53 AM GMT on August 31, 2015 (2:53 AM CDT):
No AIRMET is currently available for this location.
SIGMET - Significant Meteorological Information
KICR - Winner, South Dakota
Updated at 7:53 AM GMT on August 31, 2015 (2:53 AM CDT):
No SIGMET is currently available for this location.
NOTAM - Notice to Airmen
KICR - Winner, South Dakota
Updated at 7:53 AM GMT on August 31, 2015 (2:53 AM CDT):
No NOTAM is currently available for this location.
Forecast Area
KICR - Winner, South Dakota
Updated at 7:53 AM GMT on August 31, 2015 (2:53 AM CDT):
No NOTAM is currently available for this location.
Aviation Weather Maps